Weather History for Pasco, WA

Change the Weather History Date:

Thursday, May 15, 2014

  Actual Average Record
Temperature  
Mean Temperature 69 °F 60 °F  
Max Temperature 91 °F 76 °F 94 °F (2012)
Min Temperature 47 °F 46 °F 34 °F (2009)
Degree Days  
Heating Degree Days 0 5  
Month to date heating degree days 70 107  
Since 1 July heating degree days 5183 4931  
Cooling Degree Days 4 1  
Month to date cooling degree days 6 7  
Year to date cooling degree days 6 8  
Growing Degree Days 19 (Base 50)    
Moisture  
Dew Point 47 °F    
Average Humidity 53    
Maximum Humidity 93    
Minimum Humidity 13    
Precipitation  
Precipitation 0.00 in 0.02 in 0.44 in (2011)
Month to date precipitation 0.23 0.30  
Year to date precipitation 2.32 3.82  
Snow  
Snow 0.00 in - - ()
Snow Depth 0.00 in    
Sea Level Pressure  
Sea Level Pressure 30.00 in    
Wind  
Wind Speed 3 mph (NNE)    
Max Wind Speed 9 mph    
Max Gust Speed 13 mph    
Visibility 10 miles    
Events      
T = Trace of Precipitation, MM = Missing Value Source: NWS Daily Summary

Daily Weather History Graph

Daily Weather History Graph

Search for Another Location

Airport:

Trip Planner

Search our weather history database for the weather conditions in past years. The results will help you decide how hot, cold, wet, or windy it might be!

Date:

Astronomy

May. 15, 2014 Rise Set
Actual Time 5:23 AM PDT 8:23 PM PDT
Civil Twilight 4:48 AM PDT 8:58 PM PDT
Nautical Twilight 4:02 AM PDT 9:44 PM PDT
Astronomical Twilight 3:08 AM PDT 10:39 PM PDT
Moon 9:35 PM PDT (5/15) 6:15 AM PDT (5/15)
Length of Visible Light 16h 10m
Length of Day
14h 59m
Full, 99% of the Moon is Illuminated
May 15
Full
May 21
Last Quarter
May 28
New
Jun 5
First Quarter
Jun 12
Full

Hourly Weather History & Observations

Time (PDT) Temp. Dew Point Humidity Pressure Visibility Wind Dir Wind Speed Gust Speed Precip Events Conditions
12:53 AM 54.0 °F 48.0 °F 80% 30.11 in 10.0 mi Calm Calm - N/A   Clear
1:53 AM 52.0 °F 46.9 °F 83% 30.10 in 10.0 mi North 3.5 mph - N/A   Clear
2:53 AM 50.0 °F 46.0 °F 86% 30.10 in 10.0 mi NNE 3.5 mph - N/A   Clear
3:53 AM 48.0 °F 46.0 °F 93% 30.09 in 10.0 mi Calm Calm - N/A   Clear
4:53 AM 51.1 °F 45.0 °F 80% 30.09 in 10.0 mi East 4.6 mph - N/A   Clear
5:53 AM 52.0 °F 45.0 °F 77% 30.08 in 10.0 mi ESE 3.5 mph - N/A   Clear
6:53 AM 53.1 °F 46.9 °F 80% 30.09 in 10.0 mi Calm Calm - N/A   Clear
7:53 AM 59.0 °F 48.0 °F 67% 30.08 in 10.0 mi NW 3.5 mph - N/A   Clear
8:53 AM 64.9 °F 48.9 °F 56% 30.08 in 10.0 mi Calm Calm - N/A   Clear
9:53 AM 71.1 °F 50.0 °F 47% 30.07 in 10.0 mi Variable 5.8 mph - N/A   Clear
10:53 AM 75.9 °F 48.9 °F 38% 30.05 in 10.0 mi North 4.6 mph - N/A   Clear
12:53 PM 84.0 °F 46.9 °F 27% 30.00 in 10.0 mi NNW 4.6 mph - N/A   Clear
1:53 PM 87.1 °F 43.0 °F 21% 29.98 in 9.0 mi Calm Calm - N/A   Clear
2:53 PM 89.1 °F 37.9 °F 16% 29.95 in 10.0 mi Variable 4.6 mph - N/A   Clear
3:53 PM 89.1 °F 32.0 °F 13% 29.93 in 10.0 mi NE 3.5 mph - N/A   Clear
4:53 PM 90.0 °F 34.0 °F 14% 29.91 in 10.0 mi NNE 5.8 mph - N/A   Clear
5:53 PM 87.1 °F 41.0 °F 20% 29.90 in 10.0 mi North 5.8 mph - N/A   Clear
6:53 PM 82.0 °F 50.0 °F 33% 29.89 in 10.0 mi NNW 5.8 mph - N/A   Clear
7:53 PM 75.9 °F 60.1 °F 58% 29.89 in 10.0 mi NNW 3.5 mph - N/A   Clear
8:53 PM 75.0 °F 55.0 °F 50% 29.90 in 10.0 mi Calm Calm - N/A   Clear
9:53 PM 70.0 °F 55.0 °F 59% 29.91 in 10.0 mi NNE 5.8 mph - N/A   Clear
10:53 PM 64.0 °F 57.0 °F 78% 29.90 in 10.0 mi NE 4.6 mph - N/A   Clear
11:53 PM 68.0 °F 55.9 °F 65% 29.90 in 10.0 mi ESE 6.9 mph - N/A   Partly Cloudy